�������l�o���
Date,Time,MP-1(��Sv/h),MP-2(��Sv/h),MP-3(��Sv/h),MP-4(��Sv/h),MP-5(��Sv/h),MP-6(��Sv/h),MP-7(��Sv/h),MP-8(��Sv/h),����,����(m/s),���J
2019/05/08,00:00,0.738,1.082,0.747,1.369,0.993,0.432,0.760,0.720,���k��,3.0,��
2019/05/08,00:10,0.739,1.082,0.748,1.373,0.994,0.432,0.759,0.721,��,2.0,��
2019/05/08,00:20,0.740,1.083,0.746,1.373,0.991,0.430,0.759,0.722,���k��,3.6,��
2019/05/08,00:30,0.740,1.083,0.748,1.372,0.992,0.433,0.760,0.720,���k��,4.8,��
2019/05/08,00:40,0.740,1.084,0.746,1.372,0.993,0.433,0.760,0.721,���k��,5.0,��
2019/05/08,00:50,0.740,1.084,0.747,1.373,0.992,0.432,0.760,0.720,��,5.5,��
2019/05/08,01:00,0.739,1.082,0.745,1.371,0.993,0.431,0.760,0.721,��,6.1,��
2019/05/08,01:10,0.740,1.083,0.748,1.373,0.993,0.430,0.760,0.721,��,5.7,��
2019/05/08,01:20,0.740,1.083,0.747,1.370,0.993,0.433,0.759,0.720,��,6.9,��
2019/05/08,01:30,0.742,1.086,0.749,1.370,0.994,0.432,0.759,0.719,��,6.9,��
2019/05/08,01:40,0.741,1.084,0.748,1.374,0.994,0.431,0.759,0.722,���k��,6.1,��
2019/05/08,01:50,0.741,1.085,0.749,1.374,0.993,0.432,0.759,0.720,���k��,5.5,��
2019/05/08,02:00,0.741,1.083,0.749,1.373,0.993,0.432,0.760,0.720,�k��,4.6,��
2019/05/08,02:10,0.741,1.083,0.749,1.371,0.991,0.433,0.760,0.720,�k�k��,3.4,��
2019/05/08,02:20,0.742,1.084,0.748,1.371,0.994,0.431,0.759,0.721,�k�k��,3.4,��
2019/05/08,02:30,0.741,1.080,0.749,1.371,0.995,0.431,0.762,0.724,�k��,3.0,��
2019/05/08,02:40,0.741,1.083,0.750,1.372,0.992,0.430,0.760,0.721,��,1.5,��
2019/05/08,02:50,0.740,1.082,0.747,1.372,0.995,0.432,0.759,0.722,�k��,1.2,��
2019/05/08,03:00,0.743,1.083,0.747,1.374,0.993,0.431,0.760,0.722,�쐼,0.6,��
2019/05/08,03:10,0.740,1.083,0.747,1.372,0.993,0.431,0.762,0.722,�쐼,3.3,��
2019/05/08,03:20,0.743,1.085,0.748,1.372,0.994,0.433,0.761,0.719,���쐼,4.8,��
2019/05/08,03:30,0.742,1.084,0.749,1.373,0.994,0.434,0.761,0.721,���쐼,4.3,��
2019/05/08,03:40,0.741,1.084,0.748,1.375,0.994,0.433,0.761,0.722,���쐼,5.6,��
2019/05/08,03:50,0.741,1.083,0.750,1.374,0.995,0.432,0.762,0.722,���쐼,4.8,��
2019/05/08,04:00,0.741,1.082,0.748,1.375,0.996,0.432,0.761,0.724,��,3.3,��
2019/05/08,04:10,0.742,1.083,0.748,1.373,0.995,0.433,0.762,0.720,�k�k��,0.9,��
2019/05/08,04:20,0.742,1.086,0.747,1.373,0.994,0.432,0.761,0.723,�k,1.7,��
2019/05/08,04:30,0.741,1.084,0.748,1.374,0.993,0.432,0.762,0.723,��,5.8,��
2019/05/08,04:40,0.742,1.082,0.747,1.374,0.993,0.433,0.762,0.722,��,8.7,��
2019/05/08,04:50,0.742,1.082,0.748,1.375,0.995,0.433,0.759,0.721,��,7.4,��
2019/05/08,05:00,0.742,1.084,0.749,1.376,0.994,0.431,0.761,0.720,��,4.7,��
2019/05/08,05:10,0.741,1.084,0.749,1.377,0.995,0.434,0.761,0.722,��,5.7,��
2019/05/08,05:20,0.742,1.084,0.750,1.378,0.994,0.435,0.760,0.721,��,0.9,��
2019/05/08,05:30,0.740,1.085,0.747,1.376,0.995,0.433,0.760,0.721,���쓌,2.2,��
2019/05/08,05:40,0.740,1.085,0.748,1.375,0.993,0.432,0.761,0.722,�k��,0.9,��
2019/05/08,05:50,0.741,1.085,0.747,1.376,0.994,0.433,0.761,0.721,�k�k��,0.9,��
2019/05/08,06:00,0.742,1.086,0.749,1.374,0.995,0.432,0.760,0.721,��,1.5,��
2019/05/08,06:10,0.741,1.084,0.749,1.376,0.990,0.432,0.762,0.721,�k�k��,1.1,��
2019/05/08,06:20,0.743,1.085,0.749,1.375,0.996,0.434,0.762,0.724,�k�k��,2.0,��
2019/05/08,06:30,0.742,1.086,0.747,1.376,0.996,0.433,0.760,0.723,�k��,2.0,��
2019/05/08,06:40,0.743,1.087,0.749,1.375,0.994,0.433,0.763,0.720,�k,0.9,��
2019/05/08,06:50,0.741,1.085,0.749,1.375,0.996,0.434,0.763,0.724,�k��,1.1,��
2019/05/08,07:00,0.744,1.085,0.751,1.376,0.996,0.432,0.760,0.723,�k,0.9,��
2019/05/08,07:10,0.743,1.084,0.749,1.376,0.993,0.432,0.762,0.722,�쓌,1.1,��
2019/05/08,07:20,0.742,1.082,0.749,1.377,0.998,0.432,0.762,0.721,���쓌,3.5,��
2019/05/08,07:30,0.742,1.086,0.748,1.378,0.997,0.432,0.763,0.723,���쓌,2.0,��
2019/05/08,07:40,0.744,1.085,0.750,1.377,0.996,0.431,0.763,0.724,�쓌,1.7,��
2019/05/08,07:50,0.742,1.086,0.748,1.374,0.995,0.432,0.764,0.723,�쓌,3.6,��
2019/05/08,08:00,0.744,1.085,0.749,1.378,0.996,0.431,0.763,0.723,��쓌,3.3,��
2019/05/08,08:10,0.743,1.086,0.750,1.378,0.995,0.432,0.761,0.722,��쓌,3.5,��
2019/05/08,08:20,0.742,1.086,0.752,1.376,0.998,0.430,0.761,0.722,��쓌,3.9,��
2019/05/08,08:30,0.744,1.083,0.750,1.376,0.998,0.433,0.763,0.721,�쓌,4.0,��
2019/05/08,08:40,0.744,1.082,0.748,1.376,0.999,0.433,0.763,0.720,��쓌,2.5,��
2019/05/08,08:50,0.743,1.087,0.747,1.375,0.994,0.433,0.760,0.721,��쓌,4.0,��
2019/05/08,09:00,0.745,1.085,0.750,1.377,0.997,0.433,0.763,0.722,��쓌,4.2,��
2019/05/08,09:10,0.745,1.086,0.748,1.377,0.997,0.432,0.761,0.721,��쓌,4.1,��
2019/05/08,09:20,0.745,1.085,0.748,1.381,0.998,0.433,0.762,0.721,��,3.6,��
2019/05/08,09:30,0.746,1.087,0.748,1.378,0.997,0.434,0.762,0.720,��,4.5,��
2019/05/08,09:40,0.746,1.086,0.748,1.379,0.998,0.432,0.762,0.721,��쓌,5.0,��
2019/05/08,09:50,0.746,1.086,0.746,1.379,0.998,0.433,0.762,0.722,��,3.4,��
2019/05/08,10:00,0.746,1.089,0.749,1.375,0.998,0.434,0.763,0.721,�k��,1.2,��
2019/05/08,10:10,0.747,1.088,0.748,1.380,1.001,0.433,0.763,0.722,���쐼,3.2,��
2019/05/08,10:20,0.745,1.086,0.749,1.383,1.001,0.434,0.763,0.721,���쐼,3.4,��
2019/05/08,10:30,0.747,1.091,0.751,1.381,1.001,0.435,0.764,0.721,���쐼,3.8,��
2019/05/08,10:40,0.748,1.093,0.750,1.382,1.001,0.435,0.762,0.722,���쐼,4.4,��
2019/05/08,10:50,0.746,1.090,0.751,1.381,1.003,0.435,0.763,0.722,��,3.4,��
2019/05/08,11:00,0.747,1.091,0.750,1.380,1.001,0.436,0.765,0.722,���쐼,4.5,��
2019/05/08,11:10,0.746,1.091,0.750,1.380,1.004,0.435,0.766,0.721,��,3.2,��
2019/05/08,11:20,0.747,1.092,0.751,1.377,1.003,0.436,0.765,0.723,��쓌,1.5,��
2019/05/08,11:30,0.749,1.091,0.751,1.379,1.005,0.436,0.763,0.721,��쐼,3.7,��
2019/05/08,11:40,0.747,1.089,0.749,1.380,1.002,0.434,0.765,0.722,��,6.3,��
2019/05/08,11:50,0.746,1.091,0.752,1.379,1.005,0.435,0.765,0.721,��쓌,9.0,��
2019/05/08,12:00,0.751,1.094,0.751,1.380,1.006,0.436,0.764,0.723,��쓌,9.3,��
2019/05/08,12:10,0.746,1.097,0.752,1.380,1.006,0.435,0.765,0.722,��쓌,11.1,��
2019/05/08,12:20,0.750,1.097,0.753,1.379,1.006,0.436,0.765,0.722,��쓌,12.4,��
2019/05/08,12:30,0.748,1.098,0.753,1.381,1.007,0.436,0.763,0.722,��쓌,14.9,��
2019/05/08,12:40,0.750,1.095,0.753,1.383,1.006,0.436,0.764,0.722,��쓌,11.7,��
2019/05/08,12:50,0.751,1.097,0.754,1.380,1.009,0.436,0.763,0.721,��쓌,10.6,��
2019/05/08,13:00,0.750,1.097,0.752,1.382,1.007,0.436,0.765,0.724,��,6.6,��
2019/05/08,13:10,0.749,1.097,0.754,1.383,1.010,0.437,0.765,0.723,��쓌,5.0,��
2019/05/08,13:20,0.751,1.095,0.753,1.383,1.009,0.440,0.765,0.724,�쐼,4.9,��
2019/05/08,13:30,0.750,1.098,0.753,1.386,1.008,0.438,0.765,0.724,��,5.4,��
2019/05/08,13:40,0.751,1.100,0.755,1.384,1.009,0.437,0.764,0.723,��,8.4,��
2019/05/08,13:50,0.751,1.095,0.755,1.385,1.009,0.436,0.764,0.723,��,10.2,��
2019/05/08,14:00,0.750,1.095,0.756,1.383,1.010,0.436,0.763,0.721,��,7.4,��
2019/05/08,14:10,0.750,1.097,0.754,1.385,1.009,0.438,0.766,0.723,��,5.3,��
2019/05/08,14:20,0.751,1.099,0.753,1.383,1.008,0.438,0.766,0.723,��,5.1,��
2019/05/08,14:30,0.752,1.102,0.754,1.380,1.009,0.438,0.765,0.724,��,6.9,��
2019/05/08,14:40,0.752,1.099,0.754,1.384,1.010,0.437,0.764,0.724,��,4.9,��
2019/05/08,14:50,0.751,1.100,0.753,1.385,1.013,0.438,0.767,0.722,��,4.7,��
2019/05/08,15:00,0.754,1.101,0.756,1.385,1.010,0.439,0.767,0.724,��쐼,3.8,��
2019/05/08,15:10,0.753,1.101,0.759,1.387,1.013,0.439,0.765,0.723,��,6.1,��
2019/05/08,15:20,0.751,1.101,0.754,1.384,1.011,0.440,0.765,0.724,���쐼,3.6,��
2019/05/08,15:30,0.752,1.099,0.757,1.385,1.013,0.438,0.764,0.723,��,2.8,��
2019/05/08,15:40,0.753,1.103,0.755,1.387,1.013,0.440,0.766,0.723,��쓌,5.4,��
2019/05/08,15:50,0.753,1.101,0.755,1.388,1.012,0.439,0.767,0.725,��,6.1,��
2019/05/08,16:00,0.752,1.103,0.757,1.386,1.011,0.438,0.765,0.724,��,5.8,��
2019/05/08,16:10,0.752,1.106,0.755,1.385,1.011,0.438,0.766,0.722,��,5.7,��
2019/05/08,16:20,0.751,1.103,0.754,1.386,1.009,0.438,0.766,0.723,��,5.2,��
2019/05/08,16:30,0.752,1.103,0.756,1.384,1.014,0.439,0.766,0.725,��,5.4,��
2019/05/08,16:40,0.752,1.104,0.757,1.386,1.009,0.440,0.766,0.723,��,5.6,��
2019/05/08,16:50,0.753,1.104,0.758,1.388,1.011,0.440,0.767,0.724,��,6.2,��
2019/05/08,17:00,0.753,1.105,0.756,1.387,1.011,0.439,0.766,0.723,��,8.1,��
2019/05/08,17:10,0.751,1.106,0.756,1.388,1.012,0.440,0.766,0.722,��,8.3,��
2019/05/08,17:20,0.753,1.107,0.756,1.386,1.012,0.440,0.766,0.726,��,7.1,��
2019/05/08,17:30,0.752,1.109,0.756,1.387,1.012,0.438,0.765,0.727,��,7.1,��
2019/05/08,17:40,0.753,1.106,0.757,1.385,1.012,0.439,0.765,0.726,��,6.7,��
2019/05/08,17:50,0.751,1.107,0.756,1.388,1.011,0.440,0.765,0.727,��,6.8,��
2019/05/08,18:00,0.753,1.108,0.756,1.388,1.013,0.441,0.767,0.725,��,6.1,��
2019/05/08,18:10,0.752,1.107,0.756,1.389,1.012,0.440,0.766,0.726,��,6.3,��
2019/05/08,18:20,0.752,1.107,0.756,1.387,1.013,0.439,0.765,0.726,��,6.9,��
2019/05/08,18:30,0.752,1.106,0.754,1.389,1.013,0.441,0.762,0.727,��,7.7,��
2019/05/08,18:40,0.752,1.106,0.755,1.391,1.012,0.439,0.766,0.726,��,7.5,��
2019/05/08,18:50,0.754,1.107,0.757,1.391,1.013,0.441,0.764,0.728,��,6.3,��
2019/05/08,19:00,0.753,1.107,0.758,1.390,1.017,0.439,0.766,0.727,��,7.4,��
2019/05/08,19:10,0.757,1.105,0.758,1.390,1.014,0.440,0.764,0.725,��,7.0,��
2019/05/08,19:20,0.754,1.104,0.758,1.389,1.013,0.439,0.765,0.725,��쐼,6.1,��
2019/05/08,19:30,0.754,1.106,0.757,1.388,1.016,0.439,0.766,0.726,�쐼,5.6,��
2019/05/08,19:40,0.756,1.107,0.760,1.390,1.015,0.441,0.767,0.725,�쐼,6.6,��
2019/05/08,19:50,0.757,1.106,0.759,1.393,1.015,0.439,0.768,0.726,�쐼,7.6,��
2019/05/08,20:00,0.757,1.106,0.758,1.390,1.015,0.439,0.768,0.727,���쐼,7.4,��
2019/05/08,20:10,0.756,1.106,0.759,1.393,1.014,0.439,0.767,0.724,���쐼,7.1,��
2019/05/08,20:20,0.757,1.105,0.758,1.392,1.014,0.441,0.767,0.724,���쐼,5.1,��
2019/05/08,20:30,0.754,1.108,0.758,1.390,1.012,0.439,0.766,0.724,�쐼,7.6,��
2019/05/08,20:40,0.758,1.103,0.757,1.390,1.014,0.441,0.768,0.726,�쐼,8.3,��
2019/05/08,20:50,0.754,1.105,0.759,1.391,1.013,0.440,0.768,0.726,�쐼,7.5,��
2019/05/08,21:00,0.755,1.107,0.760,1.391,1.013,0.440,0.766,0.726,���쐼,9.2,��
2019/05/08,21:10,0.756,1.106,0.757,1.392,1.014,0.439,0.767,0.725,���쐼,8.5,��
2019/05/08,21:20,0.755,1.105,0.759,1.392,1.013,0.439,0.767,0.725,���쐼,8.0,��
2019/05/08,21:30,0.756,1.105,0.757,1.393,1.015,0.441,0.767,0.726,���쐼,7.1,��
2019/05/08,21:40,0.755,1.105,0.758,1.390,1.015,0.439,0.766,0.724,���쐼,8.0,��
2019/05/08,21:50,0.755,1.103,0.757,1.393,1.013,0.442,0.766,0.724,��,8.4,��
2019/05/08,22:00,0.756,1.107,0.758,1.392,1.013,0.439,0.768,0.725,��,7.9,��
2019/05/08,22:10,0.754,1.107,0.759,1.391,1.015,0.439,0.766,0.725,���쐼,5.8,��
2019/05/08,22:20,0.753,1.101,0.757,1.391,1.016,0.439,0.768,0.725,��쐼,3.0,��
2019/05/08,22:30,0.754,1.104,0.759,1.393,1.017,0.440,0.767,0.727,��쐼,3.0,��
2019/05/08,22:40,0.755,1.103,0.759,1.393,1.011,0.439,0.766,0.726,��,3.4,��
2019/05/08,22:50,0.755,1.103,0.757,1.394,1.014,0.439,0.765,0.726,�쐼,3.0,��
2019/05/08,23:00,0.754,1.106,0.759,1.394,1.013,0.441,0.766,0.726,��쐼,3.6,��
2019/05/08,23:10,0.757,1.107,0.757,1.391,1.014,0.438,0.765,0.726,��쐼,2.6,��
2019/05/08,23:20,0.753,1.103,0.758,1.390,1.013,0.439,0.767,0.725,��쐼,1.6,��
2019/05/08,23:30,0.755,1.105,0.758,1.392,1.015,0.439,0.767,0.726,���쐼,0.9,��
2019/05/08,23:40,0.756,1.106,0.760,1.393,1.016,0.439,0.767,0.725,��쐼,0.9,��
2019/05/08,23:50,0.753,1.105,0.757,1.393,1.015,0.439,0.766,0.727,���쓌,1.6,��
